Tracking 34138 objects as of 15-May-2026
HD Live streaming from Space Station
objects crossing your sky now

OBJECT G

Track OBJECT G now!
10-day predictions


NORAD ID: 68204
Int'l Code: 2026-052G
Perigee: 531.4 km
Apogee: 547.4 km
Inclination: 97.5 °
Period: 95.3 minutes
Semi major axis: 6910 km
RCS: Unknown
Launch date: March 16, 2026
Source: People's Republic of China (PRC)
Launch site: Jiuquan Satellite Launch Center, China (JSC)

Note: This is a ROCKET BODY
Your satellite tracking list
Your tracking list is empty




NASA's NSSDC Master Catalog

Two Line Element Set (TLE):
1 68204U 26052G   26135.15119565  .00003257  00000-0  19696-3 0  9996
2 68204  97.5340 210.5105 0011569  67.4723 292.7730 15.11304698  9068
Source of the keplerian elements: AFSPC